Theta_e
333 332 332 331 331 330 330 329 328 327 325 320 315 315 314 313 312 312 311 311 310 310 309 307 305 304 303 303 302 302 302 302 303 304 305 305 304 304 303 302 300 299
332 332 331 331 331 329 329 329 327 327 323 316 313 313 312 312 311 311 310 310 309 308 306 304 303 302 302 302 302 302 303 303 303 304 304 303 302 300 299 299 298 299
332 332 331 330 330 329 329 328 327 326 321 314 312 312 312 311 311 310 309 308 307 305 304 302 302 301 301 302 302 302 303 304 305 305 303 300 299 298 298 299 299 299
331 331 330 329 329 329 328 328 327 323 317 312 311 311 311 310 310 309 308 306 304 303 301 301 301 301 301 302 302 303 304 305 305 303 300 298 298 298 299 299 299 299
330 329 329 328 329 328 328 328 324 317 313 311 311 311 310 310 309 307 305 303 302 300 300 300 300 301 301 302 302 303 304 303 302 300 298 298 299 299 299 299 299 299
328 327 327 327 327 327 328 326 319 312 311 311 311 311 310 309 307 305 303 301 300 299 299 299 300 301 301 302 302 302 301 299 298 298 298 298 299 299 299 299 299 300
326 326 325 326 326 327 326 321 314 311 311 310 311 310 309 307 305 303 301 300 299 299 298 299 300 300 301 302 301 299 298 297 298 298 298 298 299 299 299 299 300 300
324 323 323 323 324 323 320 315 311 310 310 310 310 309 307 305 302 301 299 299 298 298 298 299 300 300 301 300 299 298 297 298 298 298 298 298 299 299 299 300 300 300
322 321 321 320 319 317 314 312 310 309 309 308 308 307 305 302 300 299 299 298 298 297 298 298 299 300 300 299 298 298 298 298 298 298 298 298 299 299 299 299 299 299
320 320 319 317 315 312 311 310 309 308 308 307 306 304 302 300 299 298 298 297 297 297 297 298 299 299 299 298 298 298 298 298 298 298 298 299 299 299 299 299 299 298
318 318 317 315 313 310 309 309 308 307 306 305 304 302 300 299 298 297 297 297 297 297 297 298 300 299 298 297 298 298 298 298 298 298 299 299 299 299 299 298 298 298
316 316 315 313 311 309 308 307 306 306 305 303 301 300 299 298 297 297 296 296 296 297 297 299 299 298 297 297 297 297 297 298 298 299 299 299 299 299 299 298 298 298
315 314 312 310 309 307 307 306 305 304 303 301 299 298 298 297 297 296 296 296 296 297 298 299 299 298 297 297 297 297 297 298 298 299 299 299 299 299 299 298 298 298
313 311 310 309 308 307 306 305 304 303 301 299 298 297 297 296 296 296 296 296 296 297 298 299 299 298 297 297 297 297 297 297 298 298 298 299 299 299 299 298 298 298
312 310 309 309 308 307 306 305 303 301 299 298 297 296 296 296 296 296 296 296 296 297 298 299 299 298 297 297 297 296 296 297 297 298 298 298 299 299 298 298 298 298
311 310 310 310 309 307 306 304 302 300 298 296 296 296 296 296 296 296 296 296 296 297 298 299 298 298 297 297 297 297 297 297 297 297 297 298 298 298 298 298 298 298
310 310 309 308 307 305 304 302 301 300 298 296 296 296 296 296 296 296 296 296 297 297 298 298 298 297 297 297 297 297 297 297 296 296 297 297 297 298 297 297 297 297
310 309 308 307 306 304 303 302 302 300 298 296 295 296 296 296 296 296 296 296 297 298 298 298 298 298 298 298 298 297 297 296 296 296 296 296 297 297 297 297 296 296
309 308 307 307 306 305 304 303 302 300 298 296 295 296 296 296 296 296 296 296 297 298 298 298 299 300 300 300 299 299 298 297 296 296 296 296 296 296 296 296 296 296
308 308 307 307 306 305 304 303 302 300 298 296 295 296 295 296 296 296 296 297 297 298 298 299 300 300 300 300 300 300 299 297 296 296 295 295 296 296 295 295 295 295
308 307 307 306 306 305 304 302 301 299 297 295 295 295 295 296 296 296 296 297 297 298 299 299 300 300 300 300 299 299 299 297 296 295 295 295 295 295 295 295 295 295
307 306 305 304 303 302 302 301 300 298 296 295 295 295 295 295 295 296 296 297 297 298 299 299 300 300 300 299 299 298 297 296 295 295 295 295 295 295 295 295 295 295
305 304 303 302 301 301 300 299 298 297 296 295 295 295 295 295 295 295 296 296 297 298 298 298 299 299 300 299 299 297 296 295 295 295 294 294 294 294 294 295 295 295
304 303 302 301 300 299 299 298 297 296 295 295 295 295 295 295 295 295 295 295 296 297 297 297 297 298 299 299 298 297 296 295 295 295 294 294 294 294 294 294 294 294
303 302 301 300 299 298 297 296 295 295 295 295 294 295 295 294 295 295 295 295 295 295 295 295 296 296 297 297 297 296 295 295 295 294 294 294 294 294 294 293 294 294
303 302 301 299 298 297 296 295 295 295 295 294 294 294 294 294 294 295 294 295 295 294 295 295 295 295 295 295 295 295 295 294 294 294 294 294 294 293 293 293 293 293
Wind_Speed
21 19 18 15 13 11 11 11 10 8 5 5 8 10 10 9 7 6 5 3 2 1 1 2 2 3 3 2 2 2 2 2 2 2 3 4 7 8 10 12 13 13
19 18 17 15 13 12 11 11 9 6 4 6 10 11 10 8 7 6 5 3 1 1 1 1 2 2 2 2 2 2 2 2 2 3 4 7 9 11 13 14 14 14
18 17 17 15 14 12 12 11 8 6 6 10 12 11 10 8 7 6 4 2 1 1 1 2 3 2 2 3 2 2 2 2 3 5 7 10 12 13 14 15 15 15
19 18 17 16 15 13 13 11 8 8 11 14 13 11 10 9 7 5 4 3 2 1 2 2 3 2 3 3 2 2 2 2 4 6 8 11 13 14 14 15 15 15
20 19 18 17 16 15 13 11 9 11 15 16 13 11 10 8 6 5 4 3 2 2 2 2 2 2 3 2 1 1 2 4 6 7 9 12 13 13 14 15 15 16
21 20 19 18 17 16 14 11 12 16 17 15 13 12 10 8 6 5 5 4 3 3 2 2 2 2 2 2 1 3 5 7 9 10 11 12 13 14 15 16 16 17
20 20 19 19 17 16 14 14 16 18 16 14 13 11 9 7 6 5 5 4 4 3 3 3 2 2 2 1 3 6 9 11 11 11 12 13 14 15 16 17 17 19
19 18 17 17 16 16 16 19 19 17 16 15 13 11 8 7 6 5 5 5 4 4 4 4 3 2 2 4 7 10 11 13 13 12 13 14 14 16 18 19 19 21
18 18 17 17 18 19 20 20 19 17 16 14 12 10 8 7 7 6 6 5 5 5 5 5 4 3 4 8 11 12 13 14 14 14 14 14 16 18 20 20 21 23
19 19 18 18 19 21 21 20 19 18 15 13 11 9 8 8 8 7 6 6 6 7 7 6 6 5 7 12 14 13 14 15 15 15 16 17 19 20 20 21 22 24
20 19 17 18 19 21 21 20 18 16 14 12 10 9 9 8 8 8 8 7 8 8 8 8 7 8 11 15 15 15 15 16 17 17 18 19 20 20 20 21 22 23
20 19 18 19 20 21 20 19 17 15 14 11 10 9 9 9 9 9 9 9 9 10 9 9 10 12 14 16 16 17 17 17 18 19 20 20 20 20 20 20 21 23
19 19 20 21 21 21 19 18 17 15 13 12 11 10 10 10 10 11 11 11 11 10 10 10 12 15 16 17 18 18 18 19 20 20 20 19 19 19 19 19 20 21
19 21 23 23 22 21 20 18 17 15 13 13 12 11 11 11 11 12 12 12 11 11 11 12 14 16 18 18 18 18 19 20 20 19 19 18 17 17 17 18 18 19
22 24 24 23 21 20 19 18 17 15 14 13 13 12 12 12 12 12 12 12 12 12 12 13 15 17 18 17 17 18 19 19 19 18 17 17 16 16 16 16 16 17
25 25 24 23 22 21 20 19 17 16 15 15 15 13 13 13 13 13 12 12 13 13 13 14 16 18 17 16 16 17 18 18 17 17 16 15 16 16 15 15 15 15
26 25 24 23 22 21 21 19 18 16 16 16 16 15 14 14 13 13 13 13 13 14 15 17 18 19 18 16 16 16 16 16 15 14 14 14 15 16 16 15 15 16
26 26 25 24 23 22 21 20 18 16 16 16 16 15 15 15 14 14 14 14 15 16 18 19 19 19 17 16 15 15 14 14 13 12 13 13 14 15 15 15 15 15
28 27 27 25 24 23 22 20 18 16 16 16 16 16 16 16 15 15 15 15 16 18 18 19 18 17 15 14 13 13 12 11 11 11 12 12 13 14 14 14 14 14
28 28 28 27 25 24 22 21 18 16 16 17 17 17 17 16 16 16 16 17 18 18 18 18 17 15 13 12 11 10 9 8 8 10 11 11 12 13 13 13 13 14
28 28 28 27 26 24 23 21 19 17 17 18 18 17 17 17 16 16 17 18 18 17 17 17 17 15 12 10 9 9 8 7 7 9 10 11 12 13 13 13 13 13
28 28 28 27 26 24 23 21 19 17 18 19 19 19 18 17 17 16 17 18 17 16 16 16 16 15 12 9 7 6 6 6 7 8 9 10 11 12 12 12 12 12
28 28 27 27 25 24 22 21 19 18 19 19 19 19 18 18 18 18 17 17 16 15 14 14 15 14 12 9 6 5 4 5 6 7 8 10 10 10 11 11 11 11
28 28 27 26 24 23 22 21 20 19 19 19 18 18 18 18 18 19 18 16 15 14 13 12 13 13 11 9 7 5 4 4 4 6 7 9 9 9 10 10 10 10
28 27 26 25 24 22 22 22 21 20 20 19 18 18 18 18 17 18 18 17 16 15 13 12 11 12 11 9 8 7 5 4 4 5 6 7 8 8 9 9 10 11
27 27 26 24 23 23 22 22 21 21 21 21 20 19 19 18 17 17 17 17 16 15 14 13 11 10 10 9 9 8 6 5 5 5 5 6 7 8 8 9 10 11
Wind_Direction
198 203 206 206 208 219 233 243 249 249 236 191 168 159 156 163 165 163 168 173 172 133 57 19 24 31 36 48 37 33 26 0 355 0 342 344 355 356 3 14 18 19
201 206 207 207 211 220 233 244 247 250 230 177 162 160 164 171 170 168 171 172 170 123 81 59 65 69 84 87 66 54 41 14 22 25 16 21 23 21 24 27 28 28
204 207 208 211 216 224 234 242 248 252 216 174 165 167 172 177 178 173 167 166 158 126 117 102 100 113 111 100 79 60 55 36 35 26 22 30 34 34 34 33 32 31
205 206 208 213 218 226 235 241 248 233 195 174 169 172 177 183 184 172 159 160 155 144 145 124 118 127 110 100 91 78 80 52 36 26 28 38 42 41 40 37 35 34
206 207 210 216 220 226 234 239 230 199 179 173 174 178 183 188 184 165 152 154 158 165 157 135 127 124 109 106 112 110 80 52 48 47 48 52 51 48 45 43 40 39
208 212 216 220 222 227 233 230 205 182 173 176 181 185 187 186 175 155 151 156 163 167 157 146 138 111 107 118 102 79 71 67 68 66 61 59 57 54 52 49 46 45
213 215 217 220 221 224 222 207 189 177 175 181 187 189 185 176 167 156 157 161 162 161 150 148 140 112 120 111 77 76 78 78 76 71 66 64 62 60 59 56 53 51
211 209 208 209 207 203 196 188 181 177 180 186 189 187 176 165 163 160 158 157 154 151 147 146 143 143 135 93 83 84 83 81 76 73 71 70 68 65 63 60 56 53
200 196 193 192 189 184 180 178 176 178 183 187 187 181 167 157 158 157 152 148 148 146 147 149 147 136 111 95 92 89 84 82 80 78 77 75 72 68 64 61 57 54
191 189 186 183 179 175 172 171 174 178 182 186 186 175 164 160 157 152 147 146 149 150 151 151 138 114 102 100 96 88 85 85 84 82 79 76 72 68 63 60 58 57
187 186 183 177 172 170 168 170 175 180 181 184 184 174 166 165 158 150 148 151 153 154 155 147 123 106 107 105 96 90 90 89 86 81 78 75 71 66 62 59 58 57
184 184 181 175 170 169 170 173 178 180 180 179 178 175 169 164 158 152 152 155 155 155 154 138 115 111 113 108 99 96 95 90 86 82 78 75 71 65 60 58 57 56
182 180 176 171 169 169 172 177 179 180 179 174 171 172 169 163 159 156 154 155 154 153 148 129 116 117 117 110 104 100 95 90 87 84 81 76 70 64 60 57 57 56
177 172 169 167 167 169 172 176 178 179 177 171 168 169 166 161 158 157 155 153 152 150 142 126 122 125 120 112 107 100 93 90 88 86 84 79 72 65 61 58 57 57
174 170 168 168 169 170 172 176 180 180 174 168 167 167 162 157 154 153 152 151 150 147 137 129 130 132 125 114 107 99 91 87 85 84 84 82 78 69 62 60 59 57
174 172 171 172 173 174 176 179 181 179 172 166 165 164 158 153 149 148 148 148 147 143 138 135 136 137 131 119 107 97 89 83 80 80 80 80 78 72 64 60 58 55
174 173 174 174 174 175 177 179 180 177 171 165 163 160 155 150 147 145 145 145 145 143 140 137 134 132 129 118 105 95 87 81 77 75 75 74 73 70 64 58 54 51
175 175 174 173 174 175 177 179 181 177 169 164 162 159 153 148 146 145 144 144 145 145 141 136 131 126 121 113 104 95 87 82 77 72 71 70 67 66 63 57 51 46
177 176 175 174 176 178 180 182 182 178 169 165 162 157 152 149 147 144 143 143 146 145 142 136 130 124 119 115 110 100 91 84 79 73 70 67 63 61 60 56 50 45
179 179 178 178 179 182 184 186 185 180 170 165 162 157 154 150 146 144 142 143 145 144 140 135 129 125 124 123 121 114 106 98 89 80 72 67 62 59 57 54 49 44
182 182 182 182 182 184 187 189 188 181 170 165 162 158 154 149 144 142 141 141 143 142 139 135 130 128 129 128 127 127 125 116 102 88 76 69 65 60 57 52 48 44
184 184 183 183 183 184 187 188 188 181 171 168 164 158 153 147 141 140 139 141 144 145 143 139 134 132 135 134 131 131 131 123 108 94 82 74 68 62 57 51 46 43
186 185 184 184 184 185 186 186 185 180 173 170 166 159 152 147 142 138 138 141 144 147 147 142 137 139 144 147 145 139 132 121 108 95 85 78 71 65 61 54 46 40
188 188 187 186 186 185 185 184 183 179 172 168 164 158 152 148 145 140 137 139 142 144 146 144 140 143 151 157 160 158 150 129 104 87 81 80 77 72 67 59 48 40
189 191 190 189 187 185 184 183 181 176 167 161 160 160 154 150 148 144 140 140 141 141 141 141 141 144 150 158 162 162 158 137 105 90 89 89 86 81 73 63 52 44
190 192 191 190 188 185 183 181 178 173 165 159 160 162 156 151 150 149 145 144 143 143 142 141 141 143 146 152 155 154 148 130 113 111 111 105 96 87 77 66 56 48